Location: Humble ISD Astronomical Observatory
(29.9680°N, 95.2620°W)
Time: 22:53:21
(UTC-05:00)

Tiangong 2 - Pass Details

Date: 24 March 2019
Orbit: 378 x 389 km, 42.8° (Epoch: 22 April)

Event Time Altitude Azimuth Distance (km) Brightness Sun altitude
Exits shadow 05:32:16 32° 58° (ENE) 675 2.8 -23.9°
Drops below altitude 10° 05:34:35 10° 98° (E) 1,396 4.8 -23.4°
Sets 05:36:44 0° 107° (ESE) 2,250 5.9 -23.0°
